Time,TemperatureF,DewpointF,PressureIn,WindDirection,WindDirectionDegrees,WindSpeedMPH,WindSpeedGustMPH,Humidity,HourlyPrecipIn,Conditions,Clouds,dailyrainin,SoftwareType,DateUTC
2013-11-07 00:03:00,52.0,-99.9,-100.00,North,-999,-999.0,-999.0,-999,0.00,,,0.00,,2013-11-07 05:03:00,
2013-11-07 00:13:00,52.0,-99.9,-100.00,North,-999,-999.0,-999.0,-999,0.00,,,0.00,,2013-11-07 05:13:00,
2013-11-07 00:24:00,52.0,-99.9,-100.00,North,-999,-999.0,-999.0,-999,0.00,,,0.00,,2013-11-07 05:24:00,
2013-11-07 00:30:00,52.0,-99.9,-100.00,North,-999,-999.0,-999.0,-999,0.00,,,0.00,,2013-11-07 05:30:00,
2013-11-07 00:55:00,52.0,-99.9,-100.00,North,-999,-999.0,-999.0,-999,0.00,,,0.00,,2013-11-07 05:55:00,
2013-11-07 01:03:00,52.0,-99.9,-100.00,North,-999,-999.0,-999.0,-999,0.00,,,0.00,,2013-11-07 06:03:00,
2013-11-07 01:13:00,52.0,-99.9,-100.00,North,-999,-999.0,-999.0,-999,0.00,,,0.00,,2013-11-07 06:13:00,
2013-11-07 01:24:00,52.0,-99.9,-100.00,North,-999,-999.0,-999.0,-999,0.00,,,0.00,,2013-11-07 06:24:00,
2013-11-07 01:52:00,52.0,-99.9,-100.00,North,-999,-999.0,-999.0,-999,0.00,,,0.00,,2013-11-07 06:52:00,
2013-11-07 02:02:00,52.0,-99.9,-100.00,North,-999,-999.0,-999.0,-999,0.00,,,0.00,,2013-11-07 07:02:00,
2013-11-07 02:12:00,52.0,-99.9,-100.00,North,-999,-999.0,-999.0,-999,0.00,,,0.00,,2013-11-07 07:12:00,
2013-11-07 02:22:00,52.0,-99.9,-100.00,North,-999,-999.0,-999.0,-999,0.00,,,0.00,,2013-11-07 07:22:00,
2013-11-07 02:30:00,52.0,-99.9,-100.00,North,-999,-999.0,-999.0,-999,0.00,,,0.00,,2013-11-07 07:30:00,
2013-11-07 02:32:00,52.0,-99.9,-100.00,North,-999,-999.0,-999.0,-999,0.00,,,0.00,,2013-11-07 07:32:00,
2013-11-07 02:42:00,52.0,-99.9,-100.00,North,-999,-999.0,-999.0,-999,0.00,,,0.00,,2013-11-07 07:42:00,
2013-11-07 02:52:00,52.0,-99.9,-100.00,North,-999,-999.0,-999.0,-999,0.00,,,0.00,,2013-11-07 07:52:00,
2013-11-07 03:02:00,52.0,-99.9,-100.00,North,-999,-999.0,-999.0,-999,0.00,,,0.00,,2013-11-07 08:02:00,
2013-11-07 03:11:00,52.0,-99.9,-100.00,North,-999,-999.0,-999.0,-999,0.00,,,0.00,,2013-11-07 08:11:00,
2013-11-07 03:22:00,52.0,-99.9,-100.00,North,-999,-999.0,-999.0,-999,0.00,,,0.00,,2013-11-07 08:22:00,
2013-11-07 03:30:00,52.0,-99.9,-100.00,North,-999,-999.0,-999.0,-999,0.00,,,0.00,,2013-11-07 08:30:00,
2013-11-07 03:53:00,52.0,-99.9,-100.00,North,-999,-999.0,-999.0,-999,0.00,,,0.00,,2013-11-07 08:53:00,
2013-11-07 04:02:00,52.0,-99.9,-100.00,North,-999,-999.0,-999.0,-999,0.00,,,0.00,,2013-11-07 09:02:00,
2013-11-07 04:11:00,52.0,-99.9,-100.00,North,-999,-999.0,-999.0,-999,0.00,,,0.00,,2013-11-07 09:11:00,
2013-11-07 04:22:00,52.0,-99.9,-100.00,North,-999,-999.0,-999.0,-999,0.00,,,0.00,,2013-11-07 09:22:00,
2013-11-07 04:30:00,53.0,-99.9,-100.00,North,-999,-999.0,-999.0,-999,0.00,,,0.00,,2013-11-07 09:30:00,
2013-11-07 04:53:00,53.0,-99.9,-100.00,North,-999,-999.0,-999.0,-999,0.00,,,0.00,,2013-11-07 09:53:00,
2013-11-07 05:03:00,53.0,-99.9,-100.00,North,-999,-999.0,-999.0,-999,0.00,,,0.00,,2013-11-07 10:03:00,
2013-11-07 05:13:00,53.0,-99.9,-100.00,North,-999,-999.0,-999.0,-999,0.00,,,0.00,,2013-11-07 10:13:00,
2013-11-07 05:23:00,53.0,-99.9,-100.00,North,-999,-999.0,-999.0,-999,0.00,,,0.00,,2013-11-07 10:23:00,
2013-11-07 05:53:00,53.0,-99.9,-100.00,North,-999,-999.0,-999.0,-999,0.00,,,0.00,,2013-11-07 10:53:00,
2013-11-07 06:02:00,53.0,-99.9,-100.00,North,-999,-999.0,-999.0,-999,0.00,,,0.00,,2013-11-07 11:02:00,
2013-11-07 06:12:00,53.0,-99.9,-100.00,North,-999,-999.0,-999.0,-999,0.00,,,0.00,,2013-11-07 11:12:00,
2013-11-07 06:22:00,53.0,-99.9,-100.00,North,-999,-999.0,-999.0,-999,0.00,,,0.00,,2013-11-07 11:22:00,
2013-11-07 06:30:00,53.0,-99.9,-100.00,North,-999,-999.0,-999.0,-999,0.00,,,0.00,,2013-11-07 11:30:00,
2013-11-07 06:52:00,53.0,-99.9,-100.00,North,-999,-999.0,-999.0,-999,0.00,,,0.00,,2013-11-07 11:52:00,
2013-11-07 07:02:00,53.0,-99.9,-100.00,North,-999,-999.0,-999.0,-999,0.00,,,0.00,,2013-11-07 12:02:00,
2013-11-07 07:12:00,53.0,-99.9,-100.00,North,-999,-999.0,-999.0,-999,0.00,,,0.00,,2013-11-07 12:12:00,
2013-11-07 07:22:00,53.0,-99.9,-100.00,North,-999,-999.0,-999.0,-999,0.00,,,0.00,,2013-11-07 12:22:00,
2013-11-07 07:52:00,52.0,-99.9,-100.00,North,-999,-999.0,-999.0,-999,0.00,,,0.00,,2013-11-07 12:52:00,
2013-11-07 08:01:00,52.0,-99.9,-100.00,North,-999,-999.0,-999.0,-999,0.00,,,0.00,,2013-11-07 13:01:00,
2013-11-07 08:22:00,52.0,-99.9,-100.00,North,-999,-999.0,-999.0,-999,0.03,,,0.03,,2013-11-07 13:22:00,
2013-11-07 08:30:00,52.0,-99.9,-100.00,North,-999,-999.0,-999.0,-999,0.04,,,0.04,,2013-11-07 13:30:00,
2013-11-07 08:32:00,52.0,-99.9,-100.00,North,-999,-999.0,-999.0,-999,0.03,,,0.03,,2013-11-07 13:32:00,
2013-11-07 08:42:00,52.0,-99.9,-100.00,North,-999,-999.0,-999.0,-999,0.03,,,0.03,,2013-11-07 13:42:00,
2013-11-07 08:52:00,52.0,-99.9,-100.00,North,-999,-999.0,-999.0,-999,0.04,,,0.04,,2013-11-07 13:52:00,
2013-11-07 09:02:00,52.0,-99.9,-100.00,North,-999,-999.0,-999.0,-999,0.04,,,0.04,,2013-11-07 14:02:00,
2013-11-07 09:12:00,52.0,-99.9,-100.00,North,-999,-999.0,-999.0,-999,0.04,,,0.04,,2013-11-07 14:12:00,
2013-11-07 09:22:00,52.0,-99.9,-100.00,North,-999,-999.0,-999.0,-999,0.04,,,0.04,,2013-11-07 14:22:00,
2013-11-07 09:30:00,52.0,-99.9,-100.00,North,-999,-999.0,-999.0,-999,0.02,,,0.06,,2013-11-07 14:30:00,
2013-11-07 09:52:00,52.0,-99.9,-100.00,North,-999,-999.0,-999.0,-999,0.02,,,0.06,,2013-11-07 14:52:00,
2013-11-07 10:02:00,52.0,-99.9,-100.00,North,-999,-999.0,-999.0,-999,0.02,,,0.06,,2013-11-07 15:02:00,
2013-11-07 10:12:00,52.0,-99.9,-100.00,North,-999,-999.0,-999.0,-999,0.02,,,0.06,,2013-11-07 15:12:00,
2013-11-07 10:22:00,52.0,-99.9,-100.00,North,-999,-999.0,-999.0,-999,0.02,,,0.06,,2013-11-07 15:22:00,
2013-11-07 10:30:00,53.0,-99.9,-100.00,North,-999,-999.0,-999.0,-999,0.02,,,0.08,,2013-11-07 15:30:00,
2013-11-07 10:53:00,53.0,-99.9,-100.00,North,-999,-999.0,-999.0,-999,0.02,,,0.08,,2013-11-07 15:53:00,
2013-11-07 11:04:00,53.0,-99.9,-100.00,North,-999,-999.0,-999.0,-999,0.02,,,0.08,,2013-11-07 16:04:00,
2013-11-07 11:13:00,53.0,-99.9,-100.00,North,-999,-999.0,-999.0,-999,0.02,,,0.08,,2013-11-07 16:13:00,
2013-11-07 11:23:00,53.0,-99.9,-100.00,North,-999,-999.0,-999.0,-999,0.02,,,0.08,,2013-11-07 16:23:00,
2013-11-07 11:30:00,53.0,-99.9,-100.00,North,-999,-999.0,-999.0,-999,0.03,,,0.11,,2013-11-07 16:30:00,
2013-11-07 11:52:00,53.0,-99.9,-100.00,North,-999,-999.0,-999.0,-999,0.03,,,0.11,,2013-11-07 16:52:00,
2013-11-07 12:03:00,53.0,-99.9,-100.00,North,-999,-999.0,-999.0,-999,0.03,,,0.11,,2013-11-07 17:03:00,
2013-11-07 12:12:00,53.0,-99.9,-100.00,North,-999,-999.0,-999.0,-999,0.03,,,0.11,,2013-11-07 17:12:00,
2013-11-07 12:22:00,53.0,-99.9,-100.00,North,-999,-999.0,-999.0,-999,0.03,,,0.11,,2013-11-07 17:22:00,
2013-11-07 12:30:00,52.0,-99.9,-100.00,North,-999,-999.0,-999.0,-999,0.00,,,0.11,,2013-11-07 17:30:00,
2013-11-07 13:02:00,52.0,-99.9,-100.00,North,-999,-999.0,-999.0,-999,0.00,,,0.11,,2013-11-07 18:02:00,
2013-11-07 13:12:00,52.0,-99.9,-100.00,North,-999,-999.0,-999.0,-999,0.00,,,0.11,,2013-11-07 18:12:00,
2013-11-07 13:23:00,52.0,-99.9,-100.00,North,-999,-999.0,-999.0,-999,0.00,,,0.11,,2013-11-07 18:23:00,
2013-11-07 13:52:00,52.0,-99.9,-100.00,North,-999,-999.0,-999.0,-999,0.00,,,0.11,,2013-11-07 18:52:00,
2013-11-07 14:02:00,52.0,-99.9,-100.00,North,-999,-999.0,-999.0,-999,0.00,,,0.11,,2013-11-07 19:02:00,
2013-11-07 14:22:00,50.0,-99.9,-100.00,North,-999,-999.0,-999.0,-999,0.00,,,0.11,,2013-11-07 19:22:00,
2013-11-07 14:30:00,50.0,-99.9,-100.00,North,-999,-999.0,-999.0,-999,0.00,,,0.11,,2013-11-07 19:30:00,
2013-11-07 14:32:00,50.0,-99.9,-100.00,North,-999,-999.0,-999.0,-999,0.00,,,0.11,,2013-11-07 19:32:00,
2013-11-07 14:42:00,50.0,-99.9,-100.00,North,-999,-999.0,-999.0,-999,0.00,,,0.11,,2013-11-07 19:42:00,
2013-11-07 14:52:00,50.0,-99.9,-100.00,North,-999,-999.0,-999.0,-999,0.00,,,0.11,,2013-11-07 19:52:00,
2013-11-07 15:02:00,50.0,-99.9,-100.00,North,-999,-999.0,-999.0,-999,0.00,,,0.11,,2013-11-07 20:02:00,
2013-11-07 15:12:00,50.0,-99.9,-100.00,North,-999,-999.0,-999.0,-999,0.00,,,0.11,,2013-11-07 20:12:00,
2013-11-07 15:22:00,50.0,-99.9,-100.00,North,-999,-999.0,-999.0,-999,0.00,,,0.11,,2013-11-07 20:22:00,
2013-11-07 15:30:00,49.0,-99.9,-100.00,North,-999,-999.0,-999.0,-999,0.00,,,0.11,,2013-11-07 20:30:00,
2013-11-07 15:52:00,49.0,-99.9,-100.00,North,-999,-999.0,-999.0,-999,0.00,,,0.11,,2013-11-07 20:52:00,
2013-11-07 16:02:00,49.0,-99.9,-100.00,North,-999,-999.0,-999.0,-999,0.00,,,0.11,,2013-11-07 21:02:00,
2013-11-07 16:12:00,49.0,-99.9,-100.00,North,-999,-999.0,-999.0,-999,0.00,,,0.11,,2013-11-07 21:12:00,
2013-11-07 16:22:00,49.0,-99.9,-100.00,North,-999,-999.0,-999.0,-999,0.00,,,0.11,,2013-11-07 21:22:00,
2013-11-07 16:30:00,44.0,-99.9,-100.00,North,-999,-999.0,-999.0,-999,0.01,,,0.12,,2013-11-07 21:30:00,
2013-11-07 16:54:00,44.0,-99.9,-100.00,North,-999,-999.0,-999.0,-999,0.01,,,0.12,,2013-11-07 21:54:00,
2013-11-07 17:03:00,44.0,-99.9,-100.00,North,-999,-999.0,-999.0,-999,0.01,,,0.12,,2013-11-07 22:03:00,
2013-11-07 17:13:00,44.0,-99.9,-100.00,North,-999,-999.0,-999.0,-999,0.01,,,0.12,,2013-11-07 22:13:00,
2013-11-07 17:24:00,44.0,-99.9,-100.00,North,-999,-999.0,-999.0,-999,0.01,,,0.12,,2013-11-07 22:24:00,
2013-11-07 17:30:00,44.0,-99.9,-100.00,North,-999,-999.0,-999.0,-999,0.00,,,0.12,,2013-11-07 22:30:00,
2013-11-07 17:53:00,44.0,-99.9,-100.00,North,-999,-999.0,-999.0,-999,0.00,,,0.12,,2013-11-07 22:53:00,
2013-11-07 18:03:00,44.0,-99.9,-100.00,North,-999,-999.0,-999.0,-999,0.00,,,0.12,,2013-11-07 23:03:00,
2013-11-07 18:13:00,44.0,-99.9,-100.00,North,-999,-999.0,-999.0,-999,0.00,,,0.12,,2013-11-07 23:13:00,
2013-11-07 18:22:00,44.0,-99.9,-100.00,North,-999,-999.0,-999.0,-999,0.00,,,0.12,,2013-11-07 23:22:00,
2013-11-07 18:30:00,43.0,-99.9,-100.00,North,-999,-999.0,-999.0,-999,0.00,,,0.12,,2013-11-07 23:30:00,
2013-11-07 18:53:00,43.0,-99.9,-100.00,North,-999,-999.0,-999.0,-999,0.00,,,0.12,,2013-11-07 23:53:00,
2013-11-07 19:02:00,43.0,-99.9,-100.00,North,-999,-999.0,-999.0,-999,0.00,,,0.12,,2013-11-08 00:02:00,
2013-11-07 19:12:00,43.0,-99.9,-100.00,North,-999,-999.0,-999.0,-999,0.00,,,0.12,,2013-11-08 00:12:00,
2013-11-07 19:22:00,43.0,-99.9,-100.00,North,-999,-999.0,-999.0,-999,0.00,,,0.12,,2013-11-08 00:22:00,
2013-11-07 19:52:00,42.0,-99.9,-100.00,North,-999,-999.0,-999.0,-999,0.00,,,0.12,,2013-11-08 00:52:00,
2013-11-07 20:03:00,42.0,-99.9,-100.00,North,-999,-999.0,-999.0,-999,0.00,,,0.12,,2013-11-08 01:03:00,
2013-11-07 20:12:00,42.0,-99.9,-100.00,North,-999,-999.0,-999.0,-999,0.00,,,0.12,,2013-11-08 01:12:00,
2013-11-07 20:22:00,42.0,-99.9,-100.00,North,-999,-999.0,-999.0,-999,0.00,,,0.12,,2013-11-08 01:22:00,
2013-11-07 20:30:00,41.0,-99.9,-100.00,North,-999,-999.0,-999.0,-999,0.00,,,0.12,,2013-11-08 01:30:00,
2013-11-07 20:32:00,42.0,-99.9,-100.00,North,-999,-999.0,-999.0,-999,0.00,,,0.12,,2013-11-08 01:32:00,
2013-11-07 20:42:00,42.0,-99.9,-100.00,North,-999,-999.0,-999.0,-999,0.00,,,0.12,,2013-11-08 01:42:00,
2013-11-07 20:52:00,41.0,-99.9,-100.00,North,-999,-999.0,-999.0,-999,0.00,,,0.12,,2013-11-08 01:52:00,
2013-11-07 21:02:00,41.0,-99.9,-100.00,North,-999,-999.0,-999.0,-999,0.00,,,0.12,,2013-11-08 02:02:00,
2013-11-07 21:12:00,41.0,-99.9,-100.00,North,-999,-999.0,-999.0,-999,0.00,,,0.12,,2013-11-08 02:12:00,
2013-11-07 21:22:00,41.0,-99.9,-100.00,North,-999,-999.0,-999.0,-999,0.00,,,0.12,,2013-11-08 02:22:00,
2013-11-07 21:30:00,40.0,-99.9,-100.00,North,-999,-999.0,-999.0,-999,0.00,,,0.12,,2013-11-08 02:30:00,
2013-11-07 21:52:00,40.0,-99.9,-100.00,North,-999,-999.0,-999.0,-999,0.00,,,0.12,,2013-11-08 02:52:00,
2013-11-07 22:02:00,40.0,-99.9,-100.00,North,-999,-999.0,-999.0,-999,0.00,,,0.12,,2013-11-08 03:02:00,
2013-11-07 22:12:00,40.0,-99.9,-100.00,North,-999,-999.0,-999.0,-999,0.00,,,0.12,,2013-11-08 03:12:00,
2013-11-07 22:22:00,40.0,-99.9,-100.00,North,-999,-999.0,-999.0,-999,0.00,,,0.12,,2013-11-08 03:22:00,
2013-11-07 22:30:00,39.0,-99.9,-100.00,North,-999,-999.0,-999.0,-999,0.00,,,0.12,,2013-11-08 03:30:00,
2013-11-07 22:55:00,39.0,-99.9,-100.00,North,-999,-999.0,-999.0,-999,0.00,,,0.12,,2013-11-08 03:55:00,
2013-11-07 23:05:00,39.0,-99.9,-100.00,North,-999,-999.0,-999.0,-999,0.00,,,0.12,,2013-11-08 04:05:00,
2013-11-07 23:13:00,39.0,-99.9,-100.00,North,-999,-999.0,-999.0,-999,0.00,,,0.12,,2013-11-08 04:13:00,
2013-11-07 23:24:00,39.0,-99.9,-100.00,North,-999,-999.0,-999.0,-999,0.00,,,0.12,,2013-11-08 04:24:00,
2013-11-07 23:30:00,39.0,-99.9,-100.00,North,-999,-999.0,-999.0,-999,0.00,,,0.12,,2013-11-08 04:30:00,
2013-11-07 23:54:00,39.0,-99.9,-100.00,North,-999,-999.0,-999.0,-999,0.00,,,0.12,,2013-11-08 04:54:00,